Location: Shenandoah County Park
(38.9356°N, 78.4524°W)
Time: 20:52:07
(UTC-04:00)

METEOR M2 - Pass Details

Date: 23 March 2023
Orbit: 818 x 827 km, 98.4° (Epoch: 04 June)

Event Time Altitude Azimuth Distance (km) Brightness Sun altitude
Rises 06:43:00 0° 26° (NNE) 3,370 ? -6.6°
Reaches altitude 10° 06:45:45 10° 39° (NE) 2,431 ? -6.1°
Maximum altitude 06:50:12 26° 95° (E) 1,564 ? -5.2°
Drops below altitude 10° 06:54:38 10° 151° (SSE) 2,412 ? -4.4°
Sets 06:57:20 0° 164° (SSE) 3,338 ? -3.9°
